Miscellaneous Local Product
Issued by NWS Hastings, NE

Home | Current Version | Previous Version | Graphics & Text | Print | Product List | Glossary On
Versions: 1 2 3 4 5 6 7 8 9 10 11 12 13 14 15 16 17 18 19 20 21 22 23 24 25 26 27 28 29 30 31 32 33 34 35 36 37 38 39 40 41 42 43 44 45 46 47 48 49 50
000
AXUS43 KGID 232002
MISGRI

GID CWA HOURLY WEATHER ROUNDUP
NATIONAL WEATHER SERVICE HASTINGS NE
300 PM CDT FRI JUN 23 2017

NOTE: "FAIR" INDICATES FEW OR NO CLOUDS BELOW 12,000 FEET WITH NO
SIGNIFICANT WEATHER AND/OR OBSTRUCTIONS TO VISIBILITY.

...SOUTH CENTRAL NEBRASKA...

CITY           SKY/WX    TMP DP  RH WIND       PRES   REMARKS
GRAND ISLAND   SUNNY     75  46  35 NW20G29   30.06F
HASTINGS       MOSUNNY   75  48  38 N16G24    30.09S
KEARNEY        MOSUNNY   75  43  31 N16       30.09S
ORD            PTSUNNY   72  44  36 NW17G24   30.07S
YORK           MOSUNNY   75  48  38 NW17G23   30.05S
AURORA         MOSUNNY   75  48  38 NW18G25   30.05F
LEXINGTON      MOSUNNY   75  44  32 N12G24    30.11S
HOLDREGE       MOSUNNY   73  45  36 NW13G18   30.09S
HEBRON         SUNNY     76  51  41 N15       30.06R

...NEBRASKA PANHANDLE...

CITY           SKY/WX    TMP DP  RH WIND       PRES   REMARKS
CHADRON        SUNNY     72  31  22 NW22G31   30.15F
ALLIANCE       SUNNY     70  34  26 N13G24    30.18F
SCOTTSBLUFF    SUNNY     72  33  24 NW12      30.19F
SIDNEY         PTSUNNY   67  39  35 NW7       30.22F

...WESTERN AND NORTH CENTRAL NEBRASKA...

CITY           SKY/WX    TMP DP  RH WIND       PRES   REMARKS
VALENTINE      MOSUNNY   72  37  28 NW17G24   30.13S
AINSWORTH      PTSUNNY   67  41  39 N16G25    30.12F
ONEILL         PTSUNNY   69  48  46 NW17G26   30.09S
BROKEN BOW     MOSUNNY   73  43  33 NW16      30.11S
IMPERIAL       CLOUDY    72  37  28 NW15G22   30.17F
NORTH PLATTE   SUNNY     77  40  26 NW13      30.12F
MCCOOK         PTSUNNY   77  46  33 NW14      30.13F

...EASTERN NEBRASKA...

CITY           SKY/WX    TMP DP  RH WIND       PRES   REMARKS
NORFOLK        MOSUNNY   71  48  43 N22G28    30.02F
SO SIOUX CITY  PTSUNNY   72  51  47 NW23G29   29.98S
TEKAMAH        MOSUNNY   75  49  39 NW21G29   29.99F
COLUMBUS       PTSUNNY   74  49  41 NW20G26   30.03F
ALBION         MOSUNNY   73  46  37 NW22G30   30.05F
OMAHA EPPLEY   MOSUNNY   74  53  48 NW16G24   29.99F
MILLARD        PTSUNNY   74  54  49 NW12G23   30.00F
LINCOLN        MOSUNNY   76  52  43 NW17G24   30.02F
NEBRASKA CITY  CLOUDY    72  57  58 N14G21    30.00S
BEATRICE       SUNNY     75  54  48 NW16G25   30.02S
FALLS CITY     CLOUDY    72  55  55 N12       29.98S

...NORTHERN KANSAS...

CITY           SKY/WX    TMP DP  RH WIND       PRES   REMARKS
GOODLAND       CLOUDY    66  46  48 NW7       30.20F
HILL CITY      MOSUNNY   79  46  31 NW12G20   30.12F
NORTON         MOCLDY    75  36  23 NW8G20    30.11S
PHILLIPSBURG   MOSUNNY   79  41  25 W14       30.09F
SMITH CENTER   SUNNY     75  45  33 NW14      30.09F
HAYS           CLOUDY    72  48  42 N9G16     30.12F
RUSSELL        CLOUDY    72  45  37 N10       30.09F
CONCORDIA      MOSUNNY   78  46  32 N15G22    30.05R
SALINA         CLOUDY    81  45  28 N23G29    30.03F
TOPEKA         SUNNY     79  55  43 N16G28    29.98R



USA.gov is the U.S. government's official web portal to all federal, state and local government web resources and services.